Location: Acheville
(50.3840°N, 2.8827°E)
Time: 17:20:58
(UTC+00:00)

COSMO-SKYMED 1 - Pass Details

Date: 24 October 2021
Orbit: 621 x 623 km, 97.9° (Epoch: 07 December)

Event Time Altitude Azimuth Distance (km) Brightness Sun altitude
Rises 17:48:57 0° 16° (NNE) 2,919 5.8 -11.8°
Reaches altitude 10° 17:51:11 10° 20° (NNE) 2,007 4.9 -12.2°
Maximum altitude 17:55:31 62° 101° (ESE) 706 2.5 -12.9°
Drops below altitude 10° 17:59:48 10° 183° (S) 1,989 5.2 -13.5°
Sets 18:02:00 0° 187° (S) 2,890 6.1 -13.9°
